Regional Weather Roundup
Issued by NWS

Home | Current Version | Previous Version | Graphics & Text | Print | Product List | Glossary On
Versions: 1 2 3 4 5 6 7 8 9 10 11 12 13 14 15 16 17 18 19 20 21 22 23 24 25 26 27 28
000
ASUS43 KDMX 220407
RWRIA

WEATHER ROUNDUP FOR IOWA
NATIONAL WEATHER SERVICE DES MOINES IA
1100 PM CDT MON APR 21 2014

NOTE: "FAIR" INDICATES FEW OR NO CLOUDS BELOW 12,000 FEET WITH NO
SIGNIFICANT WEATHER AND/OR OBSTRUCTIONS TO VISIBILITY.

* - THESE STATIONS ARE NOT NWS STATIONS...THUS NOT UNDER NWS
QUALITY CONTROL.  THEY ALSO DO NOT REPORT WEATHER SUCH
AS PRECIPITATION OR FOG.

IAZ001>003-012>014-020>022-031>034-043>046-220500-
   NORTHWEST IOWA

CITY           SKY/WX    TMP DP  RH WIND       PRES   REMARKS
CARROLL *      CLEAR     50  34  53 N12G17    30.10R
CHEROKEE *     CLEAR     50  32  50 N8G17     30.14R
DENISON *      CLEAR     50  36  57 N6        30.11R
LE MARS *      CLEAR     48  34  57 N6        30.16R
ORANGE CITY *  CLEAR     52  28  40 N7        30.15R
SHELDON *      CLEAR     43  30  61 N9        30.14R
SIOUX CITY     CLEAR     55  33  43 N10       30.15R
SPENCER        CLEAR     46  32  58 N10       30.13R
STORM LAKE *   CLEAR     46  32  57 N9        30.13R
$$

IAZ055>058-069>071-079>083-090>094-220500-
   SOUTHWEST IOWA

CITY           SKY/WX    TMP DP  RH WIND       PRES   REMARKS
ATLANTIC *     PTCLDY    52  37  58 N7        30.10R
AUDUBON *      CLEAR     52  34  50 N7        30.11R
CLARINDA *     CLEAR     55  36  47 N10       30.09R
COUNCIL BLFS * CLEAR     57  34  41 N12       30.11R
CRESTON *      CLEAR     54  37  54 N15       30.07R
HARLAN  *      CLEAR     50  37  62 CALM      30.15R
LAMONI         CLEAR     57  39  51 N10       30.04R
RED OAK *      CLEAR     50  39  66 N9        30.10R
SHENANDOAH *   CLEAR     55  36  47 N7        30.10R
$$

IAZ047>049-059>061-072>074-084-220500-
   CENTRAL IOWA

CITY           SKY/WX    TMP DP  RH WIND       PRES   REMARKS
AMES           CLEAR     52  35  52 N16       30.05R
ANKENY *       CLEAR     54  36  50 N13       30.05R
CHARITON *     CLEAR     55  41  58 N14G21    30.03R
DES MOINES     CLEAR     57  34  41 N18G26    30.05R
GRINNELL*      CLEAR     52  37  58 NW14      30.02R
KNOXVILLE *    CLEAR     55  36  47 N16G22    30.03R
MARSHALLTOWN   CLEAR     49  38  65 NW14      30.02R
NEWTON *       CLEAR     54  36  50 N17       30.03R
PELLA *        CLEAR     52  39  62 NW12      30.03S
PERRY *          N/A     52  32  46 N12       30.08R
$$

IAZ004>006-015-016-023>025-035-036-220500-
   NORTH CENTRAL IOWA

CITY           SKY/WX    TMP DP  RH WIND       PRES   REMARKS
ALGONA *       CLEAR     48  34  57 N15       30.09R
CLARION *      CLEAR     46  37  71 NW13G21   30.06R
ESTHERVILLE    CLEAR     46  32  58 N14       30.10R
FORT DODGE *   CLEAR     48  34  57 N12       30.09R
MASON CITY     CLEAR     47  36  65 NW18      30.06R
FOREST CITY *  CLEAR     46  34  61 N16G22    30.06R
IOWA FALLS *     N/A     48  39  71 NW12      30.04S
$$

IAZ007>011-017>019-026>030-037>042-050>054-066-220500-
   NORTHEAST IOWA

CITY           SKY/WX    TMP DP  RH WIND       PRES   REMARKS
CEDAR RAPIDS   CLEAR     53  42  66 NW16      29.95R
CHARLES CITY * CLEAR     50  37  62 NW16      30.02R
CLINTON *      CLEAR     50  43  76 NW10      29.92R
DECORAH *      PTCLDY    50  34  53 N9        29.97R
DUBUQUE        CLEAR     56  40  55 NW20G26   29.90S
MONTICELLO *   CLEAR     55  41  58 NW13G22   29.92S
OELWEIN *      CLEAR    N/A N/A N/A NW14G21   29.98S
WATERLOO       CLEAR     50  39  66 NW17      29.99R
$$

IAZ064-065-067-068-078-220500-
   EAST CENTRAL IOWA

CITY           SKY/WX    TMP DP  RH WIND       PRES   REMARKS
DAVENPORT      CLEAR     55  44  66 NW10      29.92R
IOWA CITY      CLEAR     57  44  62 NW17G24   29.96R
MT. PLEASANT * CLEAR     57  43  58 NW7       29.96R
MUSCATINE *    CLEAR     57  45  62 NW13      29.94R
QUAD CITIES    CLEAR     58  44  60 NW13      29.90R
$$

IAZ062-063-075>077-085>089-095>099-220500-
   SOUTHEAST IOWA

CITY           SKY/WX    TMP DP  RH WIND       PRES   REMARKS
BURLINGTON     PTCLDY    59  45  59 NW12      29.93R
FAIRFIELD *    CLEAR     54  43  66 NW15G21   29.98R
FORT MADISON * CLEAR     57  46  67 NW10      29.96R
KEOKUK *       CLEAR     57  50  77 NW9       29.95R
OSKALOOSA *      N/A     54  41  62 NW17      30.00R
CENTERVILLE *  CLEAR     55  43  62 N12       30.03R
OTTUMWA        CLEAR     54  40  59 NW16      29.99R
WASHINGTON *   CLEAR     55  45  67 NW15G22   29.96S
$$

ABBREVIATIONS USED IN REMARKS
   TC - TEMPERATURES IN CELSIUS
  WCI - WIND CHILL INDEX
   HX - HEAT INDEX
  VSB - VISIBILITY
$$




USA.gov is the U.S. government's official web portal to all federal, state and local government web resources and services.